STARLINK-4085 (53262 NORAD) Tracking and Keplerian Element Data

This shows tracking and keplerian element data for the satellite.

Feedback or suggestion? Click here.




ElementValue
Catalog53262
NameSTARLINK-4085
Epoch Orbit1074
Epoch Day270.25001157
Epoch Year2022
RAAN88.1431
Inclination53.2175
Eccentricity0.0001368
Argument of Perigee79.6613
Mean Anonmoly157.2944
Mean Motion15.2016098
Decay Rate-0.01062459
L11 53262U 22086W 22270.25001157 -.01062459 00000+0 -52970-1 0 9992
L22 53262 53.2175 88.1431 0001368 79.6613 157.2944 15.20160980 10744

Live tracking and technical data element details for STARLINK-4085 (NORAD 53262). STARLINK-4085 can be tracked NOW for your location showing map with azimuth and elevation plus other details from your city location.

Track the satellite on the map from your city or location and see movement details for azimuth, elevation, latitude, longitude, range, height, and movement on the map or in text.







IsCatalogInMostPopularTable: catalog: 53262, numindb: 3
Update: records affected: 1



GetName: 53262 STARLINK-4085

Hit Count: updated at: Thu, 29 Sep 2022 11:46:47 GMT